ONEWEB-0217 (48245 NORAD) Tracking and Keplerian Element Data

This shows tracking and keplerian element data for the satellite.

Feedback or suggestion? Click here.




ElementValue
Catalog48245
NameONEWEB-0217
Epoch Orbit177
Epoch Day170.58334491
Epoch Year2021
RAAN295.0231
Inclination87.4936
Eccentricity0.0010028
Argument of Perigee88.8352
Mean Anonmoly305.7436
Mean Motion14.40360503
Decay Rate-0.01018586
L11 48245U 21031AM 21170.58334491 -.01018586 00000-0 -34389+0 0 9995
L22 48245 87.4936 295.0231 0010028 88.8352 305.7436 14.40360503 1778

Live tracking and technical data element details for ONEWEB-0217 (NORAD 48245). ONEWEB-0217 can be tracked NOW for your location showing map with azimuth and elevation plus other details from your city location.

Track the satellite on the map from your city or location and see movement details for azimuth, elevation, latitude, longitude, range, height, and movement on the map or in text.







IsCatalogInMostPopularTable: catalog: 48245, numindb: 37
Update: records affected: 1



GetName: 48245 ONEWEB-0217

Hit Count: updated at: Mon, 21 Jun 2021 03:41:54 GMT